Location: Bottens
(46.6171°N, 6.6605°E)
Time: 15:01:08
(UTC+00:00)

ATLAS 5 CENTAUR R/B - Pass Details

Date: 02 November 2021
Orbit: 497 x 1159 km, 63.4° (Epoch: 25 November)

Event Time Altitude Azimuth Distance (km) Brightness Sun altitude
Rises 18:26:04 0° 314° (NW) 2,903 5.7 -22.7°
Reaches altitude 10° 18:29:53 10° 348° (NNW) 2,146 4.5 -23.3°
Maximum altitude 18:31:37 12° 9° (N) 2,104 4.2 -23.6°
Enters shadow 18:32:08 12° 15° (NNE) 2,135 4.2 -23.7°
